Weather Roundup
Issued by NWS Chicago, IL

Home | Current Version | Previous Version | Graphics & Text | Print | Product List | Glossary On
Versions: 1 2 3 4 5 6 7 8 9 10 11 12 13 14 15 16 17 18 19 20 21 22 23 24 25 26 27 28 29 30 31 32 33 34 35 36 37 38 39 40 41 42 43 44 45 46 47 48 49 50
000
NZUS59 KLOT 022000
HRRLOT

CHICAGO AREA WEATHER ROUNDUP
NATIONAL WEATHER SERVICE CHICAGO/ROMEOVILLE IL
300 PM CDT THU JUL 02 2015

NOTE: "FAIR" INDICATES FEW OR NO CLOUDS BELOW 12,000 FEET WITH NO
SIGNIFICANT WEATHER AND/OR OBSTRUCTIONS TO VISIBILITY.

* THESE STATIONS ARE NOT UNDER NWS QUALITY CONTROL. THEY ALSO MAY NOT
  REPORT WEATHER SUCH AS PRECIPITATION OR FOG.

ILZ005-006-012>014-019>023-022100-
NORTHEAST ILLINOIS

CITY           SKY/WX    TMP DP  RH WIND       PRES   REMARKS
OHARE          PTSUNNY   67  53  61 NE14      29.99F
MIDWAY         PTSUNNY   70  56  61 NE13      29.98F
AURORA         PTSUNNY   72  55  55 NE13G21   29.98F
WAUKEGAN       NOT AVBL
DUPAGE AIRPORT PTSUNNY   70  54  56 NE10      29.98F
WHEELING       MOSUNNY   65  51  60 NE14      30.02F
NORTHERLY IS     N/A     60  54  80 N17         N/A
$$

WIZ051-052-058>065-066-070>072-022100-
SOUTHEAST WISCONSIN

CITY           SKY/WX    TMP DP  RH WIND       PRES   REMARKS
MILWAUKEE      MOSUNNY   62  50  64 NE12      30.03F
KENOSHA*       SUNNY     67  53  61 E10       30.02F
RACINE*        SUNNY     64  51  62 NE13      30.05S
WAUKESHA       SUNNY     66  46  48 NE10      30.03F
$$

INZ001>003-010>013-019-020-022100-
NORTHWEST INDIANA

CITY           SKY/WX    TMP DP  RH WIND       PRES   REMARKS
GARY*          PTSUNNY   66  59  77 NE14G25   29.99S
MICHIGAN CITY* NOT AVBL
RENSSELAER*    NOT AVBL
$$

LMZ740>746-022100-
SOUTHERN LAKE MICHIGAN

STATION/POSITION TIME  SKY/WX   TEMP WIND        PRES    VSBY
                                AIR  DIR/SP/G
                 (UTC)          (F)  (DEG/KT/KT) (MB)    (MI)
HARRISON CRIB    1900            57  360/ 17/ 18   N/A
BURNHAM HARBOR   1900            62  340/ 12/ 16   N/A
CALUMET HARBOR   1900            61  350/ 13/ 19   N/A
BURNS HARBOR     1900            61   10/ 15/ 17 1015.9S
MICHIGAN CITY    1900            62  350/ 17/ 18   N/A
$$

ABBREVIATIONS USED IN REMARKS
   TC - TEMPERATURE IN CELSIUS
  WCI - WIND CHILL INDEX
   HX - HEAT INDEX
  VSB - VISIBILITY
$$


USA.gov is the U.S. government's official web portal to all federal, state and local government web resources and services.